User: anonymous   Login
Location: Caltech
(34.1382°N, 118.1253°W)
Time: 20:38:45
(UTC-08:00)
Language:

Sapphire - Orbit

View from above orbital plane
View from above orbital plane
View from above satellite
View from above satellite

Ground track
Ground track

The orbit data is extracted from the following two-line orbital elements,

1 26932U 01043D   16337.85591865 -.00000012  00000-0  27464-4 0  9998
2 26932  67.0564 239.8075 0003940 278.4079  81.6576 14.30233210792290
Epoch (UTC): 02 December 2016 20:32:31
Eccentricity: 0.0003940
inclination: 67.0564°
perigee height: 788 km
apogee height: 794 km
right ascension of ascending node: 239.8075°
argument of perigee: 278.4079°
revolutions per day: 14.30233210
mean anomaly at epoch: 81.6576°
orbit number at epoch: 79229

The dashed part of the orbit path shows where the satellite is in the earth's shadow,  

DLR